| time (UTC) | temp F | wind direction | speed knots | gust knots | rain 1hr in | rain 24hr in | rain mn in | humidity % | barometer mb |
| 20260507115154 | 50 | 320 | 0.0 | 0.0 | 0.00 | 0.00 | 0.00 | 82 | 1021.8 |
| 20260507114653 | 50 | 320 | 0.0 | 0.0 | 0.00 | 0.00 | 0.00 | 82 | 1022.0 |
| 20260507114151 | 51 | 320 | 0.0 | 0.0 | 0.00 | 0.00 | 0.00 | 82 | 1021.8 |
| 20260507113652 | 51 | 320 | 0.0 | 0.0 | 0.00 | 0.00 | 0.00 | 82 | 1021.7 |
| 20260507113151 | 51 | 318 | 0.0 | 0.0 | 0.00 | 0.00 | 0.00 | 82 | 1021.9 |
| 20260507112651 | 51 | 320 | 0.0 | 0.0 | 0.00 | 0.00 | 0.00 | 82 | 1021.8 |
| 20260507112151 | 51 | 319 | 0.0 | 0.0 | 0.00 | 0.00 | 0.00 | 82 | 1022.0 |
| 20260507111652 | 51 | 332 | 0.0 | 0.0 | 0.00 | 0.00 | 0.00 | 82 | 1022.0 |
| 20260507111431 | 50 | 318 | 0.0 | 0.0 | 0.00 | 0.00 | 0.00 | 82 | 1022.1 |
| 20260507110651 | 50 | 294 | 0.0 | 0.0 | 0.00 | 0.00 | 0.00 | 82 | 1021.9 |
| 20260507110152 | 50 | 348 | 0.0 | 0.0 | 0.00 | 0.00 | 0.00 | 83 | 1021.9 |
| 20260507105651 | 50 | 1 | 0.0 | 0.0 | 0.00 | 0.00 | 0.00 | 83 | 1022.0 |
| 20260507105153 | 50 | 244 | 0.0 | 0.0 | 0.00 | 0.00 | 0.00 | 84 | 1022.0 |
| 20260507104652 | 50 | 6 | 0.0 | 0.0 | 0.00 | 0.00 | 0.00 | 84 | 1021.8 |
| 20260507104424 | 50 | 38 | 0.0 | 0.0 | 0.00 | 0.00 | 0.00 | 83 | 1022.3 |
| 20260507103651 | 50 | 85 | 0.0 | 0.0 | 0.00 | 0.00 | 0.00 | 83 | 1021.9 |
| 20260507103645 | 50 | 44 | 0.0 | 0.0 | 0.00 | 0.00 | 0.00 | 83 | 1022.3 |
| 20260507102652 | 50 | 72 | 0.0 | 0.0 | 0.00 | 0.00 | 0.00 | 83 | 1022.0 |
| 20260507102153 | 50 | 74 | 0.0 | 0.0 | 0.00 | 0.00 | 0.00 | 82 | 1022.0 |
| 20260507101651 | 51 | 73 | 0.0 | 0.0 | 0.00 | 0.00 | 0.00 | 82 | 1021.9 |
| 20260507101151 | 51 | 74 | 0.0 | 0.0 | 0.00 | 0.00 | 0.00 | 82 | 1021.9 |
| 20260507100651 | 51 | 74 | 0.0 | 0.0 | 0.00 | 0.00 | 0.00 | 82 | 1021.8 |
| 20260507100406 | 51 | 70 | 0.0 | 0.0 | 0.00 | 0.00 | 0.00 | 82 | 1022.2 |
| 20260507095641 | 51 | 77 | 0.0 | 0.0 | 0.00 | 0.00 | 0.00 | 81 | 1022.1 |
| 20260507095408 | 51 | 141 | 0.0 | 0.0 | 0.00 | 0.00 | 0.00 | 81 | 1022.1 |
| 20260507094642 | 51 | 83 | 0.0 | 0.0 | 0.00 | 0.00 | 0.00 | 81 | 1022.0 |
| 20260507094130 | 51 | 61 | 0.0 | 0.0 | 0.00 | 0.00 | 0.00 | 82 | 1022.1 |
| 20260507093621 | 51 | 234 | 0.0 | 0.0 | 0.00 | 0.00 | 0.00 | 83 | 1022.1 |
| 20260507093122 | 51 | 74 | 0.0 | 0.0 | 0.00 | 0.00 | 0.00 | 82 | 1021.8 |
| 20260507092622 | 52 | 76 | 0.0 | 0.0 | 0.00 | 0.00 | 0.00 | 81 | 1021.9 |
| 20260507092119 | 52 | 46 | 0.0 | 0.0 | 0.00 | 0.00 | 0.00 | 82 | 1021.9 |
| 20260507092112 | 52 | 72 | 0.0 | 0.0 | 0.00 | 0.00 | 0.00 | 82 | 1022.0 |
| 20260507091110 | 52 | 16 | 0.0 | 0.0 | 0.00 | 0.00 | 0.00 | 81 | 1021.8 |
| 20260507090607 | 53 | 81 | 0.0 | 0.0 | 0.00 | 0.00 | 0.00 | 80 | 1022.1 |
| 20260507090107 | 53 | 195 | 0.0 | 0.0 | 0.00 | 0.00 | 0.00 | 79 | 1021.9 |
| 20260507085604 | 53 | 74 | 0.0 | 0.9 | 0.00 | 0.00 | 0.00 | 78 | 1021.9 |
| 20260507085103 | 53 | 202 | 0.0 | 2.6 | 0.00 | 0.00 | 0.00 | 77 | 1021.9 |
| 20260507084557 | 53 | 236 | 0.9 | 2.6 | 0.00 | 0.00 | 0.00 | 77 | 1021.9 |
| 20260507084051 | 53 | 212 | 0.0 | 2.6 | 0.00 | 0.00 | 0.00 | 78 | 1022.1 |
| 20260507083552 | 54 | 201 | 0.0 | 0.0 | 0.00 | 0.00 | 0.00 | 79 | 1022.0 |
| 20260507083315 | 54 | 224 | 0.0 | 1.7 | 0.00 | 0.00 | 0.00 | 79 | 1022.1 |
| 20260507082550 | 54 | 212 | 0.0 | 1.7 | 0.00 | 0.00 | 0.00 | 79 | 1022.1 |
| 20260507082315 | 54 | 210 | 0.0 | 0.0 | 0.00 | 0.00 | 0.00 | 79 | 1021.9 |
| 20260507081550 | 54 | 222 | 0.0 | 0.9 | 0.00 | 0.00 | 0.00 | 79 | 1022.0 |
| 20260507081051 | 54 | 177 | 0.0 | 2.6 | 0.00 | 0.00 | 0.00 | 80 | 1021.8 |
| 20260507080550 | 54 | 174 | 0.9 | 2.6 | 0.00 | 0.00 | 0.00 | 80 | 1022.2 |
| 20260507080050 | 54 | 215 | 1.7 | 2.6 | 0.00 | 0.00 | 0.00 | 80 | 1021.9 |
| 20260507075549 | 54 | 160 | 0.0 | 2.6 | 0.00 | 0.00 | 0.00 | 80 | 1022.0 |
| 20260507075039 | 54 | 126 | 0.0 | 2.6 | 0.00 | 0.00 | 0.00 | 80 | 1022.2 |
| 20260507074805 | 54 | 191 | 0.0 | 2.6 | 0.00 | 0.00 | 0.00 | 80 | 1022.0 |
| 20260507074028 | 54 | 194 | 2.6 | 2.6 | 0.00 | 0.00 | 0.00 | 79 | 1022.1 |
| 20260507073756 | 54 | 187 | 0.0 | 1.7 | 0.00 | 0.00 | 0.00 | 79 | 1022.2 |
| 20260507073522 | 54 | 216 | 0.0 | 1.7 | 0.00 | 0.00 | 0.00 | 78 | 1022.0 |
| 20260507072530 | 54 | 204 | 0.0 | 2.6 | 0.00 | 0.00 | 0.00 | 78 | 1022.0 |
| 20260507072253 | 54 | 210 | 0.0 | 2.6 | 0.00 | 0.00 | 0.00 | 78 | 1022.1 |
| 20260507071525 | 54 | 223 | 0.0 | 1.7 | 0.00 | 0.00 | 0.00 | 78 | 1021.9 |
| 20260507071038 | 54 | 217 | 0.0 | 2.6 | 0.00 | 0.00 | 0.00 | 78 | 1022.0 |
| 20260507070541 | 55 | 223 | 0.0 | 3.5 | 0.00 | 0.00 | 0.00 | 78 | 1021.9 |
| 20260507070038 | 55 | 176 | 0.9 | 3.5 | 0.00 | 0.00 | 0.00 | 77 | 1021.8 |
| 20260507065522 | 55 | 203 | 0.0 | 3.5 | 0.00 | 0.00 | 0.00 | 78 | 1022.0 |
| 20260507065514 | 55 | 210 | 3.5 | 3.5 | 0.00 | 0.00 | 0.00 | 77 | 1021.9 |
| 20260507064516 | 55 | 208 | 0.0 | 2.6 | 0.00 | 0.00 | 0.00 | 77 | 1022.0 |
| 20260507064016 | 55 | 192 | 0.9 | 5.2 | 0.00 | 0.00 | 0.00 | 77 | 1022.0 |
| 20260507063739 | 55 | 233 | 1.7 | 5.2 | 0.00 | 0.00 | 0.00 | 77 | 1022.2 |
| 20260507063239 | 55 | 224 | 2.6 | 5.2 | 0.00 | 0.00 | 0.00 | 77 | 1021.9 |
| 20260507063008 | 55 | 195 | 0.9 | 3.5 | 0.00 | 0.00 | 0.00 | 77 | 1021.9 |
| 20260507062017 | 55 | 217 | 1.7 | 3.5 | 0.00 | 0.00 | 0.00 | 77 | 1021.9 |
| 20260507062000 | 55 | 226 | 0.9 | 3.5 | 0.00 | 0.00 | 0.00 | 77 | 1021.9 |
| 20260507061016 | 55 | 230 | 0.0 | 3.5 | 0.00 | 0.00 | 0.00 | 77 | 1022.0 |
| 20260507061010 | 55 | 214 | 1.7 | 3.5 | 0.00 | 0.00 | 0.00 | 76 | 1021.9 |
| 20260507060017 | 55 | 231 | 3.5 | 3.5 | 0.00 | 0.00 | 0.00 | 76 | 1021.8 |
| 20260507055517 | 56 | 240 | 1.7 | 3.5 | 0.00 | 0.00 | 0.00 | 75 | 1021.8 |
| 20260507055015 | 56 | 214 | 0.0 | 3.5 | 0.00 | 0.00 | 0.00 | 75 | 1021.9 |
| 20260507054516 | 56 | 229 | 1.7 | 2.6 | 0.00 | 0.00 | 0.00 | 75 | 1021.9 |
| 20260507054016 | 56 | 246 | 0.0 | 3.5 | 0.00 | 0.00 | 0.00 | 75 | 1021.9 |
| 20260507053515 | 56 | 224 | 0.9 | 5.2 | 0.00 | 0.00 | 0.00 | 74 | 1021.9 |
| 20260507053241 | 56 | 206 | 0.9 | 5.2 | 0.00 | 0.00 | 0.00 | 74 | 1021.7 |
| 20260507052744 | 56 | 223 | 0.0 | 5.2 | 0.00 | 0.00 | 0.00 | 73 | 1022.0 |
| 20260507052007 | 56 | 230 | 0.0 | 5.2 | 0.00 | 0.00 | 0.00 | 72 | 1021.8 |
| 20260507051505 | 57 | 223 | 0.0 | 3.5 | 0.00 | 0.00 | 0.00 | 72 | 1021.8 |
| 20260507050956 | 57 | 257 | 0.0 | 5.2 | 0.00 | 0.00 | 0.00 | 71 | 1022.1 |
| 20260507050455 | 57 | 205 | 1.7 | 5.2 | 0.00 | 0.00 | 0.00 | 71 | 1022.0 |
| 20260507045954 | 57 | 203 | 3.5 | 5.2 | 0.00 | 0.00 | 0.00 | 70 | 1022.0 |
| 20260507045458 | 57 | 241 | 0.9 | 3.5 | 0.00 | 0.00 | 0.00 | 71 | 1021.8 |
| 20260507045216 | 57 | 199 | 0.9 | 7.0 | 0.00 | 0.00 | 0.00 | 70 | 1021.8 |
| 20260507044451 | 57 | 216 | 0.9 | 7.0 | 0.00 | 0.00 | 0.00 | 70 | 1022.0 |
| 20260507043949 | 57 | 240 | 5.2 | 6.1 | 0.00 | 0.00 | 0.00 | 70 | 1021.9 |
| 20260507043447 | 57 | 203 | 0.0 | 1.7 | 0.00 | 0.00 | 0.00 | 70 | 1021.8 |
| 20260507042946 | 57 | 203 | 0.0 | 1.7 | 0.00 | 0.00 | 0.00 | 70 | 1021.8 |
| 20260507042440 | 57 | 217 | 0.0 | 1.7 | 0.00 | 0.00 | 0.00 | 69 | 1022.0 |
| 20260507041932 | 57 | 190 | 0.0 | 2.6 | 0.00 | 0.00 | 0.00 | 70 | 1021.8 |
| 20260507041438 | 57 | 181 | 0.0 | 2.6 | 0.00 | 0.00 | 0.00 | 70 | 1021.8 |
| 20260507040930 | 57 | 219 | 0.0 | 0.9 | 0.00 | 0.00 | 0.00 | 69 | 1021.7 |
| 20260507040430 | 57 | 214 | 0.0 | 0.0 | 0.00 | 0.00 | 0.00 | 69 | 1021.7 |
| 20260507035920 | 58 | 215 | 0.0 | 1.7 | 0.00 | 0.00 | 0.00 | 69 | 1021.5 |
| 20260507035418 | 57 | 202 | 0.0 | 1.7 | 0.00 | 0.00 | 0.00 | 69 | 1021.7 |
| 20260507034918 | 58 | 219 | 0.0 | 2.6 | 0.00 | 0.00 | 0.00 | 69 | 1021.7 |
| 20260507034418 | 58 | 216 | 1.7 | 2.6 | 0.00 | 0.00 | 0.00 | 68 | 1021.6 |
| 20260507033916 | 58 | 216 | 0.0 | 5.2 | 0.00 | 0.00 | 0.00 | 68 | 1021.5 |
| 20260507033419 | 58 | 214 | 2.6 | 5.2 | 0.00 | 0.00 | 0.00 | 68 | 1021.4 |
| 20260507032915 | 58 | 247 | 0.0 | 3.5 | 0.00 | 0.00 | 0.00 | 68 | 1021.4 |
| 20260507032415 | 58 | 221 | 0.0 | 1.7 | 0.00 | 0.00 | 0.00 | 68 | 1021.4 |
| 20260507031907 | 58 | 225 | 0.0 | 3.5 | 0.00 | 0.00 | 0.00 | 67 | 1021.4 |
| 20260507031623 | 58 | 250 | 0.0 | 3.5 | 0.00 | 0.00 | 0.00 | 67 | 1021.1 |
| 20260507030857 | 58 | 244 | 0.9 | 3.5 | 0.00 | 0.00 | 0.00 | 67 | 1021.2 |
| 20260507030410 | 58 | 238 | 0.0 | 5.2 | 0.00 | 0.00 | 0.00 | 68 | 1021.3 |
| 20260507025855 | 58 | 208 | 0.9 | 5.2 | 0.00 | 0.00 | 0.00 | 67 | 1021.0 |
| 20260507025357 | 58 | 198 | 0.0 | 2.6 | 0.00 | 0.00 | 0.00 | 67 | 1021.1 |
| 20260507024854 | 58 | 218 | 0.9 | 3.5 | 0.00 | 0.00 | 0.00 | 67 | 1021.3 |
| 20260507024621 | 59 | 215 | 0.0 | 3.5 | 0.00 | 0.00 | 0.00 | 67 | 1021.1 |
| 20260507023853 | 59 | 217 | 0.0 | 2.6 | 0.00 | 0.00 | 0.00 | 67 | 1021.3 |
| 20260507023355 | 59 | 241 | 0.9 | 2.6 | 0.00 | 0.00 | 0.00 | 66 | 1021.1 |
| 20260507022854 | 59 | 235 | 1.7 | 3.5 | 0.00 | 0.00 | 0.00 | 66 | 1021.2 |
| 20260507022355 | 59 | 243 | 0.9 | 6.1 | 0.00 | 0.00 | 0.00 | 66 | 1021.2 |
| 20260507021853 | 59 | 230 | 2.6 | 6.1 | 0.00 | 0.00 | 0.00 | 66 | 1021.1 |
| 20260507021355 | 59 | 234 | 0.9 | 6.1 | 0.00 | 0.00 | 0.00 | 66 | 1021.0 |
| 20260507020855 | 59 | 256 | 3.5 | 6.1 | 0.00 | 0.00 | 0.00 | 66 | 1021.3 |
| 20260507020631 | 59 | 261 | 0.0 | 5.2 | 0.00 | 0.00 | 0.00 | 66 | 1021.1 |
| 20260507015854 | 59 | 205 | 1.7 | 5.2 | 0.00 | 0.00 | 0.00 | 66 | 1021.0 |
| 20260507015620 | 60 | 240 | 0.0 | 5.2 | 0.00 | 0.00 | 0.00 | 66 | 1021.3 |
| 20260507015124 | 60 | 217 | 1.7 | 5.2 | 0.00 | 0.00 | 0.00 | 66 | 1021.0 |
| 20260507014354 | 60 | 247 | 0.0 | 2.6 | 0.00 | 0.00 | 0.00 | 65 | 1020.8 |
| 20260507013852 | 60 | 221 | 2.6 | 2.6 | 0.00 | 0.00 | 0.00 | 65 | 1021.0 |
| 20260507013353 | 60 | 218 | 0.0 | 5.2 | 0.00 | 0.00 | 0.00 | 66 | 1021.0 |
| 20260507012852 | 60 | 217 | 1.7 | 5.2 | 0.00 | 0.00 | 0.00 | 65 | 1021.2 |
| 20260507012354 | 60 | 221 | 1.7 | 3.5 | 0.00 | 0.00 | 0.00 | 65 | 1021.2 |
| 20260507012120 | 60 | 216 | 0.0 | 6.1 | 0.00 | 0.00 | 0.00 | 65 | 1020.8 |
| 20260507011354 | 60 | 236 | 4.3 | 6.1 | 0.00 | 0.00 | 0.00 | 65 | 1021.1 |
| 20260507010853 | 60 | 221 | 3.5 | 3.5 | 0.00 | 0.00 | 0.00 | 64 | 1021.1 |
| 20260507010354 | 60 | 195 | 0.0 | 3.5 | 0.00 | 0.00 | 0.00 | 65 | 1021.0 |
| 20260507010346 | 60 | 237 | 0.9 | 5.2 | 0.00 | 0.00 | 0.00 | 64 | 1021.1 |
| 20260507005400 | 60 | 226 | 0.9 | 5.2 | 0.00 | 0.00 | 0.00 | 64 | 1021.2 |
| 20260507004852 | 60 | 214 | 2.6 | 6.1 | 0.00 | 0.00 | 0.00 | 63 | 1021.0 |
| 20260507004352 | 60 | 224 | 0.0 | 6.1 | 0.00 | 0.00 | 0.00 | 64 | 1021.1 |
| 20260507003850 | 60 | 261 | 2.6 | 5.2 | 0.00 | 0.00 | 0.00 | 63 | 1021.0 |
| 20260507003346 | 60 | 232 | 0.9 | 5.2 | 0.00 | 0.00 | 0.00 | 63 | 1021.2 |
| 20260507002846 | 61 | 273 | 0.9 | 5.2 | 0.00 | 0.00 | 0.00 | 63 | 1021.1 |
| 20260507002346 | 60 | 226 | 0.9 | 7.0 | 0.00 | 0.00 | 0.00 | 63 | 1021.1 |
| 20260507001840 | 60 | 250 | 0.9 | 7.0 | 0.00 | 0.00 | 0.00 | 63 | 1021.2 |
| 20260507001337 | 60 | 242 | 3.5 | 6.1 | 0.00 | 0.00 | 0.00 | 62 | 1021.1 |
| 20260507000837 | 61 | 237 | 0.9 | 6.1 | 0.00 | 0.00 | 0.00 | 63 | 1021.2 |
| 20260507000328 | 61 | 222 | 2.6 | 6.1 | 0.00 | 0.00 | 0.00 | 62 | 1021.2 |
| 20260506235825 | 61 | 257 | 0.0 | 5.2 | 0.00 | 0.00 | 0.00 | 62 | 1021.2 |
| 20260506235316 | 61 | 213 | 3.5 | 3.5 | 0.00 | 0.00 | 0.00 | 61 | 1021.2 |
| 20260506234817 | 61 | 198 | 1.7 | 5.2 | 0.00 | 0.00 | 0.00 | 62 | 1021.1 |
| 20260506234810 | 61 | 213 | 1.7 | 5.2 | 0.00 | 0.00 | 0.00 | 62 | 1021.1 |
| 20260506233808 | 61 | 249 | 0.9 | 2.6 | 0.00 | 0.00 | 0.00 | 62 | 1021.2 |
| 20260506233309 | 61 | 222 | 0.0 | 3.5 | 0.00 | 0.00 | 0.00 | 62 | 1021.1 |
| 20260506232759 | 60 | 220 | 0.9 | 3.5 | 0.00 | 0.00 | 0.00 | 63 | 1021.2 |
| 20260506232258 | 60 | 289 | 0.0 | 6.1 | 0.00 | 0.00 | 0.00 | 64 | 1021.2 |
| 20260506231747 | 60 | 231 | 0.9 | 6.1 | 0.00 | 0.00 | 0.00 | 64 | 1021.1 |
| 20260506231516 | 60 | 204 | 1.7 | 5.2 | 0.00 | 0.00 | 0.00 | 63 | 1021.3 |
| 20260506230748 | 60 | 229 | 1.7 | 5.2 | 0.00 | 0.00 | 0.00 | 64 | 1021.2 |
| 20260506230237 | 60 | 232 | 1.7 | 5.2 | 0.00 | 0.00 | 0.00 | 64 | 1021.0 |
| 20260506225735 | 60 | 230 | 0.0 | 3.5 | 0.00 | 0.00 | 0.00 | 64 | 1021.0 |
| 20260506225458 | 60 | 231 | 1.7 | 3.5 | 0.00 | 0.00 | 0.00 | 64 | 1021.2 |
| 20260506224732 | 60 | 240 | 0.0 | 3.5 | 0.00 | 0.00 | 0.00 | 64 | 1021.3 |
| 20260506224233 | 60 | 216 | 0.9 | 6.1 | 0.00 | 0.00 | 0.00 | 64 | 1021.3 |
| 20260506223955 | 60 | 206 | 0.9 | 6.1 | 0.00 | 0.00 | 0.00 | 65 | 1021.4 |
| 20260506223233 | 60 | 234 | 1.7 | 3.5 | 0.00 | 0.00 | 0.00 | 64 | 1021.2 |
| 20260506222956 | 59 | 223 | 1.7 | 2.6 | 0.00 | 0.00 | 0.00 | 65 | 1021.6 |
| 20260506222233 | 59 | 269 | 0.0 | 6.1 | 0.00 | 0.00 | 0.00 | 65 | 1021.5 |
| 20260506221731 | 59 | 242 | 1.7 | 6.1 | 0.00 | 0.00 | 0.00 | 65 | 1021.8 |
| 20260506221231 | 59 | 224 | 0.0 | 2.6 | 0.00 | 0.00 | 0.00 | 66 | 1021.6 |
| 20260506220730 | 59 | 252 | 0.0 | 2.6 | 0.00 | 0.00 | 0.00 | 67 | 1021.6 |
| 20260506220230 | 58 | 308 | 0.9 | 3.5 | 0.00 | 0.00 | 0.00 | 68 | 1021.6 |
| 20260506215732 | 59 | 269 | 0.0 | 3.5 | 0.00 | 0.00 | 0.00 | 67 | 1021.6 |
| 20260506215231 | 59 | 316 | 0.0 | 2.6 | 0.00 | 0.00 | 0.00 | 66 | 1021.8 |
| 20260506214731 | 59 | 260 | 0.0 | 5.2 | 0.00 | 0.00 | 0.00 | 66 | 1021.6 |
| 20260506214230 | 59 | 258 | 0.0 | 5.2 | 0.00 | 0.00 | 0.00 | 66 | 1022.0 |
| 20260506213731 | 59 | 234 | 0.9 | 3.5 | 0.00 | 0.00 | 0.00 | 66 | 1021.5 |
| 20260506213231 | 59 | 227 | 0.0 | 3.5 | 0.00 | 0.00 | 0.00 | 66 | 1021.6 |
| 20260506212731 | 59 | 217 | 0.0 | 5.2 | 0.00 | 0.00 | 0.00 | 66 | 1021.6 |
| 20260506212230 | 59 | 298 | 0.0 | 5.2 | 0.00 | 0.00 | 0.00 | 66 | 1021.6 |
| 20260506211731 | 59 | 219 | 1.7 | 3.5 | 0.00 | 0.00 | 0.00 | 66 | 1021.6 |
| 20260506211230 | 58 | 246 | 0.0 | 2.6 | 0.00 | 0.00 | 0.00 | 70 | 1021.6 |
| 20260506210731 | 58 | 353 | 0.9 | 2.6 | 0.00 | 0.00 | 0.00 | 69 | 1021.6 |
| 20260506210230 | 58 | 31 | 0.9 | 2.6 | 0.00 | 0.00 | 0.00 | 70 | 1021.4 |
| 20260506205725 | 58 | 308 | 0.0 | 2.6 | 0.00 | 0.00 | 0.00 | 71 | 1021.5 |
| 20260506205217 | 58 | 337 | 1.7 | 3.5 | 0.00 | 0.00 | 0.00 | 70 | 1021.5 |
| 20260506204717 | 58 | 336 | 1.7 | 3.5 | 0.00 | 0.00 | 0.00 | 71 | 1021.4 |
| 20260506204218 | 58 | 354 | 2.6 | 3.5 | 0.00 | 0.00 | 0.00 | 70 | 1021.5 |
| 20260506203717 | 58 | 353 | 1.7 | 2.6 | 0.00 | 0.00 | 0.00 | 70 | 1021.5 |
| 20260506203218 | 58 | 323 | 0.9 | 2.6 | 0.00 | 0.00 | 0.00 | 72 | 1021.5 |
| 20260506202718 | 58 | 326 | 0.0 | 0.9 | 0.00 | 0.00 | 0.00 | 72 | 1021.5 |
| 20260506202219 | 58 | 349 | 0.0 | 0.0 | 0.00 | 0.00 | 0.00 | 72 | 1021.3 |
| 20260506201718 | 58 | 2 | 0.0 | 0.0 | 0.00 | 0.00 | 0.00 | 74 | 1021.4 |
| 20260506201219 | 57 | 323 | 0.0 | 1.7 | 0.00 | 0.00 | 0.00 | 73 | 1021.2 |
| 20260506200718 | 57 | 296 | 0.0 | 1.7 | 0.00 | 0.00 | 0.00 | 74 | 1021.3 |
| 20260506200217 | 57 | 359 | 0.9 | 3.5 | 0.00 | 0.00 | 0.00 | 74 | 1021.4 |
| 20260506200211 | 57 | 296 | 0.0 | 3.5 | 0.00 | 0.00 | 0.00 | 74 | 1021.4 |
| 20260506195224 | 57 | 303 | 1.7 | 3.5 | 0.00 | 0.00 | 0.00 | 75 | 1021.2 |
| 20260506194715 | 57 | 353 | 0.0 | 2.6 | 0.00 | 0.00 | 0.00 | 75 | 1021.4 |
| 20260506194214 | 57 | 8 | 0.0 | 1.7 | 0.00 | 0.00 | 0.00 | 75 | 1021.4 |
| 20260506193715 | 57 | 359 | 1.7 | 2.6 | 0.00 | 0.00 | 0.00 | 75 | 1020.9 |
| 20260506193215 | 57 | 339 | 0.0 | 2.6 | 0.00 | 0.00 | 0.00 | 75 | 1021.2 |
| 20260506192716 | 57 | 336 | 0.9 | 3.5 | 0.00 | 0.00 | 0.00 | 74 | 1021.1 |
| 20260506192215 | 58 | 285 | 0.9 | 3.5 | 0.00 | 0.00 | 0.00 | 72 | 1021.2 |
| 20260506191717 | 58 | 254 | 0.0 | 3.5 | 0.00 | 0.00 | 0.00 | 74 | 1021.1 |
| 20260506191215 | 58 | 227 | 0.9 | 5.2 | 0.00 | 0.00 | 0.00 | 74 | 1021.2 |
| 20260506190717 | 58 | 175 | 1.7 | 5.2 | 0.00 | 0.00 | 0.00 | 74 | 1021.1 |
| 20260506190216 | 58 | 188 | 0.0 | 5.2 | 0.00 | 0.00 | 0.00 | 73 | 1021.3 |
| 20260506185717 | 58 | 178 | 0.0 | 5.2 | 0.00 | 0.00 | 0.00 | 73 | 1021.3 |
| 20260506185708 | 58 | 167 | 0.9 | 3.5 | 0.00 | 0.00 | 0.00 | 73 | 1021.2 |
| 20260506184716 | 58 | 194 | 0.0 | 3.5 | 0.00 | 0.00 | 0.00 | 72 | 1021.3 |
| 20260506184214 | 58 | 174 | 0.0 | 5.2 | 0.00 | 0.00 | 0.00 | 73 | 1021.2 |
| 20260506183716 | 58 | 231 | 2.6 | 5.2 | 0.00 | 0.00 | 0.00 | 73 | 1021.3 |
| 20260506183444 | 58 | 135 | 0.0 | 3.5 | 0.00 | 0.00 | 0.00 | 72 | 1021.3 |
| 20260506182719 | 58 | 220 | 0.9 | 3.5 | 0.00 | 0.00 | 0.00 | 73 | 1021.2 |
| 20260506182443 | 58 | 247 | 0.0 | 3.5 | 0.00 | 0.00 | 0.00 | 73 | 1020.9 |
| 20260506181717 | 58 | 82 | 0.0 | 6.1 | 0.00 | 0.00 | 0.00 | 73 | 1021.0 |
| 20260506181453 | 58 | 209 | 1.7 | 6.1 | 0.00 | 0.00 | 0.00 | 73 | 1021.0 |
| 20260506180718 | 58 | 192 | 0.9 | 6.1 | 0.00 | 0.00 | 0.00 | 73 | 1021.0 |
| 20260506180215 | 57 | 203 | 0.0 | 2.6 | 0.00 | 0.00 | 0.00 | 73 | 1021.1 |
| 20260506175717 | 57 | 212 | 0.0 | 5.2 | 0.00 | 0.00 | 0.00 | 73 | 1021.1 |
| 20260506175216 | 57 | 162 | 0.0 | 5.2 | 0.00 | 0.00 | 0.00 | 74 | 1021.0 |
| 20260506174717 | 57 | 150 | 0.0 | 6.1 | 0.00 | 0.00 | 0.00 | 75 | 1021.1 |
| 20260506174215 | 57 | 90 | 2.6 | 6.1 | 0.00 | 0.00 | 0.00 | 74 | 1021.2 |
| 20260506173717 | 57 | 188 | 0.9 | 5.2 | 0.00 | 0.00 | 0.00 | 75 | 1021.2 |
| 20260506173436 | 57 | 180 | 3.5 | 3.5 | 0.00 | 0.00 | 0.00 | 74 | 1021.2 |
| 20260506172715 | 57 | 206 | 1.7 | 6.1 | 0.00 | 0.00 | 0.00 | 74 | 1021.0 |
| 20260506172206 | 57 | 243 | 3.5 | 6.1 | 0.00 | 0.00 | 0.00 | 74 | 1021.2 |
| 20260506171707 | 57 | 257 | 2.6 | 5.2 | 0.00 | 0.00 | 0.00 | 74 | 1021.1 |
| 20260506171205 | 57 | 214 | 0.0 | 5.2 | 0.00 | 0.00 | 0.00 | 75 | 1021.2 |
| 20260506170656 | 57 | 159 | 2.6 | 5.2 | 0.00 | 0.00 | 0.00 | 75 | 1021.2 |
| 20260506170153 | 56 | 210 | 0.9 | 7.0 | 0.00 | 0.00 | 0.00 | 76 | 1021.0 |
| 20260506165647 | 56 | 183 | 3.5 | 7.0 | 0.00 | 0.00 | 0.00 | 76 | 1021.0 |
| 20260506165153 | 56 | 207 | 5.2 | 7.0 | 0.00 | 0.00 | 0.00 | 75 | 1021.0 |
| 20260506164636 | 57 | 218 | 0.0 | 6.1 | 0.00 | 0.00 | 0.00 | 75 | 1020.8 |
| 20260506164142 | 56 | 163 | 0.9 | 6.1 | 0.00 | 0.00 | 0.00 | 75 | 1020.8 |
| 20260506163635 | 56 | 210 | 2.6 | 6.1 | 0.00 | 0.00 | 0.00 | 75 | 1020.7 |
| 20260506163142 | 56 | 219 | 1.7 | 6.1 | 0.00 | 0.00 | 0.00 | 76 | 1020.6 |
| 20260506162654 | 56 | 198 | 0.0 | 3.5 | 0.00 | 0.00 | 0.00 | 78 | 1020.4 |
| 20260506162645 | 56 | 213 | 0.9 | 3.5 | 0.00 | 0.00 | 0.00 | 77 | 1020.6 |
| 20260506161636 | 56 | 198 | 0.0 | 3.5 | 0.00 | 0.00 | 0.00 | 79 | 1020.5 |
| 20260506161154 | 56 | 91 | 1.7 | 2.6 | 0.00 | 0.00 | 0.00 | 79 | 1020.5 |
| 20260506160637 | 56 | 181 | 0.0 | 2.6 | 0.00 | 0.00 | 0.00 | 79 | 1020.6 |
| 20260506160154 | 55 | 212 | 0.0 | 2.6 | 0.00 | 0.00 | 0.00 | 80 | 1020.7 |
| 20260506155636 | 55 | 156 | 1.7 | 2.6 | 0.00 | 0.00 | 0.00 | 80 | 1020.9 |
| 20260506155142 | 55 | 239 | 0.9 | 2.6 | 0.00 | 0.00 | 0.00 | 80 | 1020.6 |
| 20260506154636 | 55 | 192 | 0.0 | 3.5 | 0.00 | 0.00 | 0.00 | 81 | 1020.9 |
| 20260506154409 | 55 | 194 | 0.0 | 3.5 | 0.00 | 0.00 | 0.00 | 81 | 1020.7 |
| 20260506153635 | 55 | 165 | 0.0 | 2.6 | 0.00 | 0.00 | 0.00 | 81 | 1020.6 |
| 20260506153143 | 55 | 163 | 0.0 | 3.5 | 0.00 | 0.00 | 0.00 | 81 | 1020.6 |
| 20260506152909 | 55 | 173 | 0.0 | 3.5 | 0.00 | 0.00 | 0.00 | 82 | 1020.5 |
| 20260506152142 | 55 | 99 | 0.0 | 1.7 | 0.00 | 0.00 | 0.00 | 81 | 1020.6 |
| 20260506151635 | 55 | 180 | 0.0 | 2.6 | 0.00 | 0.00 | 0.00 | 81 | 1020.8 |
| 20260506151140 | 55 | 173 | 0.9 | 1.7 | 0.00 | 0.00 | 0.00 | 80 | 1020.7 |
| 20260506150625 | 55 | 198 | 0.0 | 1.7 | 0.00 | 0.00 | 0.00 | 80 | 1020.6 |
| 20260506150130 | 55 | 178 | 0.9 | 2.6 | 0.00 | 0.00 | 0.00 | 80 | 1020.7 |
| 20260506145623 | 55 | 204 | 0.0 | 5.2 | 0.00 | 0.00 | 0.00 | 80 | 1020.9 |
| 20260506145128 | 55 | 219 | 1.7 | 5.2 | 0.00 | 0.00 | 0.00 | 80 | 1020.8 |
| 20260506144623 | 55 | 225 | 0.0 | 2.6 | 0.00 | 0.00 | 0.00 | 80 | 1020.6 |
| 20260506144123 | 55 | 184 | 0.0 | 1.7 | 0.00 | 0.00 | 0.00 | 81 | 1020.5 |
| 20260506143616 | 55 | 236 | 0.0 | 2.6 | 0.00 | 0.00 | 0.00 | 80 | 1020.3 |
| 20260506143609 | 55 | 137 | 0.9 | 2.6 | 0.00 | 0.00 | 0.00 | 80 | 1020.1 |
| 20260506142613 | 55 | 162 | 0.0 | 1.7 | 0.00 | 0.00 | 0.00 | 80 | 1020.1 |
| 20260506142122 | 55 | 184 | 0.0 | 2.6 | 0.00 | 0.00 | 0.00 | 80 | 1020.3 |
| 20260506141613 | 55 | 129 | 0.0 | 2.6 | 0.00 | 0.00 | 0.00 | 80 | 1020.4 |
| 20260506141123 | 55 | 175 | 0.0 | 1.7 | 0.00 | 0.00 | 0.00 | 79 | 1020.3 |
| 20260506140613 | 55 | 204 | 0.0 | 2.6 | 0.00 | 0.00 | 0.00 | 79 | 1020.5 |
| 20260506140346 | 55 | 168 | 0.0 | 3.5 | 0.00 | 0.00 | 0.00 | 80 | 1020.2 |
| 20260506135613 | 55 | 149 | 2.6 | 3.5 | 0.00 | 0.00 | 0.00 | 80 | 1020.1 |
| 20260506135354 | 55 | 210 | 1.7 | 2.6 | 0.00 | 0.00 | 0.00 | 80 | 1020.5 |
| 20260506134614 | 55 | 201 | 0.0 | 1.7 | 0.00 | 0.00 | 0.00 | 81 | 1020.1 |
| 20260506134125 | 55 | 219 | 0.0 | 1.7 | 0.00 | 0.00 | 0.00 | 82 | 1020.3 |
| 20260506133841 | 55 | 194 | 0.0 | 1.7 | 0.00 | 0.00 | 0.00 | 82 | 1020.0 |
| 20260506133110 | 55 | 236 | 0.0 | 1.7 | 0.00 | 0.00 | 0.00 | 82 | 1020.2 |
| 20260506132604 | 55 | 194 | 0.0 | 5.2 | 0.00 | 0.00 | 0.00 | 82 | 1020.0 |
| 20260506132110 | 55 | 194 | 0.0 | 5.2 | 0.00 | 0.00 | 0.00 | 82 | 1019.8 |
| 20260506131604 | 55 | 85 | 0.9 | 2.6 | 0.00 | 0.00 | 0.00 | 82 | 1020.0 |
| 20260506131109 | 55 | 181 | 0.0 | 0.9 | 0.00 | 0.00 | 0.00 | 82 | 1019.8 |
| 20260506130823 | 55 | 165 | 0.0 | 2.6 | 0.00 | 0.00 | 0.00 | 83 | 1019.9 |
| 20260506130104 | 55 | 180 | 0.0 | 2.6 | 0.00 | 0.00 | 0.00 | 83 | 1019.9 |
| 20260506125559 | 55 | 156 | 0.0 | 0.9 | 0.00 | 0.00 | 0.00 | 83 | 1019.7 |
| 20260506125103 | 55 | 87 | 0.0 | 2.6 | 0.00 | 0.00 | 0.00 | 83 | 1019.8 |
| 20260506124549 | 55 | 176 | 0.0 | 2.6 | 0.00 | 0.00 | 0.00 | 83 | 1019.8 |
| 20260506124052 | 55 | 212 | 0.0 | 2.6 | 0.00 | 0.00 | 0.00 | 83 | 1019.7 |
| 20260506123546 | 55 | 209 | 0.0 | 3.5 | 0.00 | 0.00 | 0.00 | 83 | 1019.8 |
| 20260506123050 | 55 | 156 | 0.0 | 3.5 | 0.00 | 0.00 | 0.00 | 83 | 1019.5 |
| 20260506122537 | 55 | 233 | 0.0 | 3.5 | 0.00 | 0.00 | 0.00 | 84 | 1019.7 |
| 20260506122039 | 55 | 220 | 0.0 | 3.5 | 0.00 | 0.00 | 0.00 | 84 | 1019.7 |
| 20260506121533 | 55 | 221 | 0.0 | 1.7 | 0.00 | 0.00 | 0.00 | 84 | 1019.6 |
| 20260506121037 | 55 | 167 | 0.0 | 2.6 | 0.00 | 0.00 | 0.00 | 84 | 1019.5 |
| 20260506120531 | 55 | 207 | 0.0 | 2.6 | 0.00 | 0.00 | 0.00 | 84 | 1019.6 |
| 20260506120036 | 55 | 199 | 0.0 | 2.6 | 0.00 | 0.00 | 0.00 | 83 | 1019.5 |
| 20260506115531 | 55 | 188 | 0.0 | 3.5 | 0.00 | 0.00 | 0.00 | 83 | 1019.3 |